EW4784 Weather Reports


Display with metric or nautical units.
time (UTC)temp
F
wind
direction
speed
MPH
gust
MPH
rain 1hr
in
rain 24hr
in
rain mn
in
humidity
%
barometer
mb
20260902194249 94 299 13.0 32.0 0.00 0.00 0.00 46 1012.4
20260902193748 95 294 9.0 24.0 0.00 0.00 0.00 46 1012.4
20260902193308 95 295 14.0 29.0 0.00 0.00 0.00 45 1012.5
20260902192746 95 308 8.0 27.0 0.00 0.00 0.00 46 1012.5
20260902192245 95 287 7.0 19.0 0.00 0.00 0.00 46 1012.5
20260902191744 95 285 8.0 29.0 0.00 0.00 0.00 46 1012.6
20260902191244 96 310 11.0 26.0 0.00 0.00 0.00 45 1012.6
20260902190802 96 260 6.0 22.0 0.00 0.00 0.00 45 1012.6
20260902190302 96 272 6.0 24.0 0.00 0.00 0.00 46 1012.6
20260902185801 96 310 7.0 21.0 0.00 0.00 0.00 46 1012.5
20260902185239 97 298 6.0 22.0 0.00 0.00 0.00 44 1012.5
20260902184738 98 297 8.0 26.0 0.00 0.00 0.00 44 1012.4
20260902184237 98 257 8.0 20.0 0.00 0.00 0.00 44 1012.5
20260902183736 97 284 5.0 16.0 0.00 0.00 0.00 46 1012.5
20260902183234 97 279 7.0 30.0 0.00 0.00 0.00 47 1012.6
20260902182734 97 310 7.0 16.0 0.00 0.00 0.00 46 1012.6
20260902182233 97 279 4.0 14.0 0.00 0.00 0.00 47 1012.6
20260902181732 98 277 4.0 19.0 0.00 0.00 0.00 46 1012.6
20260902181230 98 307 8.0 26.0 0.00 0.00 0.00 46 1012.7
20260902180730 97 299 6.0 15.0 0.00 0.00 0.00 47 1012.8
20260902180250 98 261 5.0 22.0 0.00 0.00 0.00 47 1012.9
20260902175728 97 270 6.0 26.0 0.00 0.00 0.00 48 1013.0
20260902175226 96 314 7.0 19.0 0.00 0.00 0.00 49 1013.1
20260902174725 96 303 4.0 18.0 0.00 0.00 0.00 51 1013.3
20260902174224 95 335 7.0 21.0 0.00 0.00 0.00 50 1013.3
20260902173724 96 334 8.0 19.0 0.00 0.00 0.00 50 1013.4
20260902173223 95 304 7.0 17.0 0.00 0.00 0.00 50 1013.5
20260902172722 95 343 5.0 16.0 0.00 0.00 0.00 53 1013.6
20260902172242 94 331 9.0 20.0 0.00 0.00 0.00 51 1013.7
20260902171741 94 332 9.0 20.0 0.00 0.00 0.00 52 1013.8
20260902171218 94 308 8.0 17.0 0.00 0.00 0.00 52 1013.9
20260902170718 94 311 8.0 19.0 0.00 0.00 0.00 53 1014.0
20260902170217 93 322 8.0 16.0 0.00 0.00 0.00 54 1014.0
20260902165736 93 310 12.0 24.0 0.00 0.00 0.00 54 1014.1
20260902165215 93 285 4.0 17.0 0.00 0.00 0.00 56 1014.2
20260902164713 92 312 6.0 23.0 0.00 0.00 0.00 57 1014.3
20260902164212 92 291 7.0 17.0 0.00 0.00 0.00 56 1014.3
20260902163711 93 318 11.0 24.0 0.00 0.00 0.00 55 1014.3
20260902163210 94 302 7.0 17.0 0.00 0.00 0.00 55 1014.2
20260902162730 93 292 8.0 24.0 0.00 0.00 0.00 56 1014.1
20260902162209 93 304 5.0 13.0 0.00 0.00 0.00 56 1014.1
20260902161707 93 288 3.0 15.0 0.00 0.00 0.00 57 1014.1
20260902161228 93 281 7.0 19.0 0.00 0.00 0.00 56 1014.1
20260902160705 93 267 6.0 28.0 0.00 0.00 0.00 57 1014.2
20260902160205 93 285 5.0 12.0 0.00 0.00 0.00 58 1014.2
20260902155704 93 287 6.0 24.0 0.00 0.00 0.00 57 1014.2
20260902155202 93 271 4.0 16.0 0.00 0.00 0.00 57 1014.2
20260902154701 93 282 6.0 15.0 0.00 0.00 0.00 57 1014.2
20260902154201 92 292 3.0 12.0 0.00 0.00 0.00 60 1014.2
20260902153720 92 305 2.0 13.0 0.00 0.00 0.00 59 1014.2
20260902153158 92 309 8.0 19.0 0.00 0.00 0.00 58 1014.1
20260902152658 92 296 6.0 19.0 0.00 0.00 0.00 59 1014.2
20260902152156 91 312 7.0 18.0 0.00 0.00 0.00 60 1014.3
20260902151655 91 302 2.0 11.0 0.00 0.00 0.00 61 1014.3
20260902151155 91 265 2.0 11.0 0.00 0.00 0.00 62 1014.2
20260902150653 90 326 4.0 21.0 0.00 0.00 0.00 61 1014.2
20260902150152 90 331 7.0 20.0 0.00 0.00 0.00 62 1014.2
20260902145651 90 324 4.0 11.0 0.00 0.00 0.00 65 1014.3
20260902145151 89 317 7.0 13.0 0.00 0.00 0.00 65 1014.3
20260902144649 89 309 2.0 10.0 0.00 0.00 0.00 66 1014.3
20260902144148 88 298 4.0 11.0 0.00 0.00 0.00 68 1014.3
20260902143708 87 311 5.0 15.0 0.00 0.00 0.00 68 1014.4
20260902143147 87 312 6.0 15.0 0.00 0.00 0.00 69 1014.4
20260902142646 86 309 6.0 18.0 0.00 0.00 0.00 71 1014.4
20260902142144 86 310 4.0 10.0 0.00 0.00 0.00 71 1014.3
20260902141704 86 338 4.0 13.0 0.00 0.00 0.00 72 1014.3
20260902141142 86 315 7.0 18.0 0.00 0.00 0.00 72 1014.4
20260902140641 86 321 4.0 19.0 0.00 0.00 0.00 72 1014.4
20260902140140 86 323 4.0 19.0 0.00 0.00 0.00 74 1014.3
20260902135639 86 286 4.0 13.0 0.00 0.00 0.00 75 1014.4
20260902135138 85 308 1.0 8.0 0.00 0.00 0.00 76 1014.4
20260902134637 84 322 6.0 16.0 0.00 0.00 0.00 77 1014.5
20260902134158 84 323 3.0 10.0 0.00 0.00 0.00 78 1014.5
20260902133635 83 317 3.0 14.0 0.00 0.00 0.00 80 1014.6
20260902133134 83 312 4.0 14.0 0.00 0.00 0.00 81 1014.7
20260902132655 82 299 5.0 16.0 0.00 0.00 0.00 81 1014.8
20260902132132 82 307 5.0 15.0 0.00 0.00 0.00 82 1014.8
20260902131632 82 319 7.0 14.0 0.00 0.00 0.00 82 1014.9
20260902131130 81 308 6.0 16.0 0.00 0.00 0.00 84 1014.9
20260902130650 81 314 3.0 15.0 0.00 0.00 0.00 84 1014.9
20260902130128 80 308 5.0 15.0 0.00 0.00 0.00 85 1014.9
20260902125627 80 302 6.0 19.0 0.00 0.00 0.00 86 1014.8
20260902125126 79 307 7.0 18.0 0.00 0.00 0.00 86 1014.8
20260902124625 79 312 6.0 15.0 0.00 0.00 0.00 87 1014.8
20260902124145 79 317 4.0 17.0 0.00 0.00 0.00 88 1014.8
20260902123623 78 306 5.0 19.0 0.00 0.00 0.00 88 1014.8
20260902123122 78 299 6.0 18.0 0.00 0.00 0.00 89 1014.8
20260902122621 78 306 5.0 16.0 0.00 0.00 0.00 89 1014.8
20260902122120 78 315 4.0 14.0 0.00 0.00 0.00 89 1014.8
20260902121619 78 320 4.0 13.0 0.00 0.00 0.00 90 1014.8
20260902121118 77 301 7.0 16.0 0.00 0.00 0.00 90 1014.8
20260902120616 77 312 4.0 15.0 0.00 0.00 0.00 91 1014.9
20260902120116 77 308 4.0 16.0 0.00 0.00 0.00 91 1014.9
20260902115616 76 306 2.0 10.0 0.00 0.00 0.00 92 1015.1
20260902115114 76 299 5.0 15.0 0.00 0.00 0.00 92 1015.2
20260902114634 76 302 5.0 15.0 0.00 0.00 0.00 93 1015.1
20260902114112 76 301 4.0 11.0 0.00 0.00 0.00 93 1015.1
20260902113611 76 292 1.0 7.0 0.00 0.00 0.00 93 1015.0
20260902113110 75 322 1.0 7.0 0.00 0.00 0.00 94 1015.0
20260902112609 75 288 1.0 9.0 0.00 0.00 0.00 94 1015.0
20260902112108 75 268 1.0 9.0 0.00 0.00 0.00 94 1015.1
20260902111629 75 327 1.0 9.0 0.00 0.00 0.00 94 1015.0
20260902111106 75 299 1.0 9.0 0.00 0.00 0.00 94 1015.0
20260902110605 75 293 2.0 10.0 0.00 0.00 0.00 94 1015.2
20260902110103 75 350 0.0 0.0 0.00 0.00 0.00 94 1015.3
20260902105602 75 318 0.0 5.0 0.00 0.00 0.00 94 1015.3
20260902105102 75 303 2.0 9.0 0.00 0.00 0.00 94 1015.2
20260902104622 75 296 1.0 9.0 0.00 0.00 0.00 94 1015.2
20260902104059 75 304 1.0 6.0 0.00 0.00 0.00 94 1015.2
20260902103559 75 306 1.0 6.0 0.00 0.00 0.00 94 1015.2
20260902103058 75 300 3.0 9.0 0.00 0.00 0.00 94 1015.1
20260902102556 75 315 1.0 9.0 0.00 0.00 0.00 95 1015.1
20260902102056 75 283 2.0 11.0 0.00 0.00 0.00 95 1015.1
20260902101555 75 292 1.0 9.0 0.00 0.00 0.00 95 1015.1
20260902101115 75 267 2.0 10.0 0.00 0.00 0.00 95 1014.9
20260902100613 75 262 1.0 7.0 0.00 0.00 0.00 95 1014.9
20260902100052 75 273 1.0 7.0 0.00 0.00 0.00 95 1014.8
20260902095611 75 266 1.0 8.0 0.00 0.00 0.00 95 1014.7
20260902095050 75 257 0.0 2.0 0.00 0.00 0.00 95 1014.7
20260902094549 75 260 0.0 3.0 0.00 0.00 0.00 95 1014.7
20260902094108 75 269 0.0 3.0 0.00 0.00 0.00 95 1014.8
20260902093547 75 276 0.0 0.0 0.00 0.00 0.00 94 1014.8
20260902093046 75 279 0.0 3.0 0.00 0.00 0.00 94 1014.8
20260902092544 75 280 0.0 1.0 0.00 0.00 0.00 94 1014.8
20260902092044 75 280 0.0 2.0 0.00 0.00 0.00 94 1014.8
20260902091542 75 274 0.0 3.0 0.00 0.00 0.00 94 1014.8
20260902091042 75 281 0.0 4.0 0.00 0.00 0.00 94 1014.8
20260902090540 75 303 1.0 5.0 0.00 0.00 0.00 94 1014.6
20260902090100 75 302 1.0 4.0 0.00 0.00 0.00 94 1014.6
20260902085538 75 264 1.0 7.0 0.00 0.00 0.00 94 1014.5
20260902085038 75 276 1.0 6.0 0.00 0.00 0.00 94 1014.6
20260902084537 75 308 1.0 5.0 0.00 0.00 0.00 94 1014.7
20260902084036 75 278 1.0 6.0 0.00 0.00 0.00 94 1014.7
20260902083534 75 292 0.0 4.0 0.00 0.00 0.00 94 1014.6
20260902083033 75 281 1.0 4.0 0.00 0.00 0.00 94 1014.6
20260902082532 75 281 1.0 6.0 0.00 0.00 0.00 94 1014.6
20260902082031 75 278 0.0 3.0 0.00 0.00 0.00 94 1014.7
20260902081530 75 314 2.0 6.0 0.00 0.00 0.00 94 1014.7
20260902081030 75 305 0.0 5.0 0.00 0.00 0.00 94 1014.7
20260902080550 75 301 1.0 9.0 0.00 0.00 0.00 94 1014.7
20260902080048 75 273 0.0 1.0 0.00 0.00 0.00 94 1014.8
20260902075526 75 282 0.0 3.0 0.00 0.00 0.00 94 1014.8
20260902075025 74 288 0.0 3.0 0.00 0.00 0.00 94 1014.8
20260902074524 74 0 0.0 0.0 0.00 0.00 0.00 94 1014.6
20260902074023 74 0 0.0 0.0 0.00 0.00 0.00 94 1014.5
20260902073543 74 0 0.0 0.0 0.00 0.00 0.00 94 1014.6
20260902073021 74 0 0.0 0.0 0.00 0.00 0.00 93 1014.7
20260902072520 74 0 0.0 0.0 0.00 0.00 0.00 93 1014.7
20260902072041 74 0 0.0 0.0 0.00 0.00 0.00 93 1014.7
20260902071518 74 0 0.0 0.0 0.00 0.00 0.00 93 1014.7
20260902071039 74 0 0.0 0.0 0.00 0.00 0.00 93 1014.7
20260902070516 74 0 0.0 0.0 0.00 0.00 0.00 93 1014.6
20260902070015 74 0 0.0 0.0 0.00 0.00 0.00 93 1014.6
20260902065515 74 0 0.0 0.0 0.00 0.00 0.00 93 1014.6
20260902065013 74 0 0.0 0.0 0.00 0.00 0.00 93 1014.6
20260902064512 74 0 0.0 0.0 0.00 0.00 0.00 93 1014.7
20260902064012 74 0 0.0 0.0 0.00 0.00 0.00 92 1014.7
20260902063510 74 0 0.0 0.0 0.00 0.00 0.00 92 1014.6
20260902063009 74 0 0.0 0.0 0.00 0.00 0.00 92 1014.7
20260902062529 74 0 0.0 0.0 0.00 0.00 0.00 92 1014.7
20260902062007 74 0 0.0 0.0 0.00 0.00 0.00 92 1014.8
20260902061528 74 0 0.0 0.0 0.00 0.00 0.00 92 1014.9
20260902061005 74 0 0.0 0.0 0.00 0.00 0.00 91 1014.9
20260902060525 74 0 0.0 0.0 0.00 0.00 0.00 91 1015.0
20260902060003 75 0 0.0 0.0 0.00 0.00 0.00 91 1015.0
20260902055502 75 0 0.0 0.0 0.00 0.00 0.00 91 1015.1
20260902055002 75 0 0.0 0.0 0.00 0.00 0.00 91 1015.1
20260902054522 75 0 0.0 0.0 0.00 0.00 0.00 91 1015.2
20260902054000 75 355 0.0 0.0 0.00 0.00 0.00 91 1015.2
20260902053458 75 272 0.0 0.0 0.00 0.00 0.00 91 1015.2
20260902052957 75 272 0.0 0.0 0.00 0.00 0.00 91 1015.2
20260902052456 75 272 0.0 0.0 0.00 0.00 0.00 90 1015.2
20260902052016 75 272 0.0 0.0 0.00 0.00 0.00 90 1015.3
20260902051515 75 272 0.0 0.0 0.00 0.00 0.00 90 1015.3
20260902050953 75 272 0.0 0.0 0.00 0.00 0.00 90 1015.3
20260902050452 75 272 0.0 0.0 0.00 0.00 0.00 90 1015.3
20260902045951 75 272 0.0 0.0 0.00 0.00 0.00 89 1015.3
20260902045450 75 272 0.0 0.0 0.00 0.00 0.00 90 1015.3
20260902044949 75 272 0.0 0.0 0.00 0.00 0.00 90 1015.3
20260902044448 75 272 0.0 0.0 0.00 0.00 0.00 90 1015.3
20260902043947 75 272 0.0 0.0 0.00 0.00 0.00 90 1015.3
20260902043446 75 272 0.0 0.0 0.00 0.00 0.00 90 1015.3
20260902042946 75 272 0.0 0.0 0.00 0.00 0.00 90 1015.3
20260902042444 75 272 0.0 0.0 0.00 0.00 0.00 90 1015.3
20260902041943 75 273 0.0 0.0 0.00 0.00 0.00 90 1015.2
20260902041441 75 273 0.0 0.0 0.00 0.00 0.00 90 1015.2
20260902040941 75 281 0.0 0.0 0.00 0.00 0.00 90 1015.2
20260902040440 75 281 0.0 0.0 0.00 0.00 0.00 89 1015.0
20260902035939 75 281 0.0 0.0 0.00 0.00 0.00 89 1015.1
20260902035459 76 281 0.0 0.0 0.00 0.00 0.00 89 1015.1
20260902034958 76 271 0.0 0.0 0.00 0.00 0.00 89 1015.1
20260902034457 76 270 0.0 0.0 0.00 0.00 0.00 89 1015.1
20260902033935 76 258 0.0 0.0 0.00 0.00 0.00 89 1015.1
20260902033434 76 254 0.0 0.0 0.00 0.00 0.00 88 1015.0
20260902032933 76 254 0.0 0.0 0.00 0.00 0.00 88 1015.0
20260902032432 76 254 0.0 0.0 0.00 0.00 0.00 88 1015.0
20260902031952 76 254 0.0 0.0 0.00 0.00 0.00 88 1014.9
20260902031430 76 254 0.0 0.0 0.00 0.00 0.00 88 1014.9
20260902030950 76 254 0.0 0.0 0.00 0.00 0.00 87 1014.8
20260902030429 76 254 0.0 0.0 0.00 0.00 0.00 87 1014.8
20260902025927 77 254 0.0 0.0 0.00 0.00 0.00 87 1014.8
20260902025426 77 254 0.0 0.0 0.00 0.00 0.00 87 1014.8
20260902024925 77 254 0.0 0.0 0.00 0.00 0.00 86 1014.8
20260902024423 77 254 0.0 0.0 0.00 0.00 0.00 86 1014.8
20260902023922 77 254 0.0 0.0 0.00 0.00 0.00 86 1014.7
20260902023422 78 254 0.0 0.0 0.00 0.00 0.00 85 1014.5
20260902022920 78 254 0.0 0.0 0.00 0.00 0.00 84 1014.6
20260902022419 78 254 0.0 0.0 0.00 0.00 0.00 84 1014.6
20260902021919 78 280 0.0 4.0 0.00 0.00 0.00 83 1014.6
20260902021417 78 275 0.0 2.0 0.00 0.00 0.00 83 1014.6
20260902020916 79 264 0.0 0.0 0.00 0.00 0.00 82 1014.5
20260902020437 79 264 0.0 0.0 0.00 0.00 0.00 82 1014.4
20260902015915 79 265 0.0 0.0 0.00 0.00 0.00 81 1014.4
20260902015413 79 278 1.0 8.0 0.00 0.00 0.00 81 1014.5
20260902014913 79 291 2.0 8.0 0.00 0.00 0.00 81 1014.6
20260902014412 80 273 0.0 4.0 0.00 0.00 0.00 80 1014.6
20260902013910 80 270 1.0 8.0 0.00 0.00 0.00 80 1014.7
20260902013409 80 286 2.0 9.0 0.00 0.00 0.00 80 1014.7
20260902012909 80 288 3.0 10.0 0.00 0.00 0.00 80 1014.7
20260902012407 80 311 1.0 7.0 0.00 0.00 0.00 80 1014.7
20260902011927 80 303 1.0 6.0 0.00 0.00 0.00 80 1014.6
20260902011406 80 285 3.0 11.0 0.00 0.00 0.00 80 1014.5
20260902010904 80 303 2.0 8.0 0.00 0.00 0.00 79 1014.5
20260902010404 80 280 2.0 8.0 0.00 0.00 0.00 79 1014.4
20260902005902 81 300 2.0 8.0 0.00 0.00 0.00 79 1014.4
20260902005401 81 281 1.0 6.0 0.00 0.00 0.00 79 1014.3
20260902004900 81 278 3.0 10.0 0.00 0.00 0.00 78 1014.3
20260902004359 81 279 2.0 9.0 0.00 0.00 0.00 78 1014.1
20260902003858 82 287 5.0 12.0 0.00 0.00 0.00 78 1014.1
20260902003357 82 299 3.0 12.0 0.00 0.00 0.00 78 1014.1
20260902002856 82 293 4.0 21.0 0.00 0.00 0.00 77 1014.0
20260902002416 82 280 5.0 15.0 0.00 0.00 0.00 77 1014.1
20260902001915 82 292 5.0 13.0 0.00 0.00 0.00 77 1014.1
20260902001354 83 298 6.0 14.0 0.00 0.00 0.00 77 1014.1
20260902000852 83 303 3.0 12.0 0.00 0.00 0.00 76 1014.1
20260902000352 83 309 5.0 19.0 0.00 0.00 0.00 76 1014.1
20260901235851 83 278 2.0 14.0 0.00 0.00 0.00 75 1014.0
20260901235349 84 300 3.0 13.0 0.00 0.00 0.00 75 1014.0
20260901234848 84 285 7.0 26.0 0.00 0.00 0.00 74 1014.0
20260901234409 85 288 11.0 23.0 0.00 0.00 0.00 74 1014.0
20260901233847 85 288 9.0 19.0 0.00 0.00 0.00 74 1013.9
20260901233345 85 279 3.0 11.0 0.00 0.00 0.00 74 1013.8
20260901232845 86 292 4.0 15.0 0.00 0.00 0.00 73 1013.8
20260901232343 86 285 6.0 20.0 0.00 0.00 0.00 73 1013.7
20260901231904 87 265 1.0 8.0 0.00 0.00 0.00 72 1013.7
20260901231342 87 282 1.0 8.0 0.00 0.00 0.00 71 1013.7
20260901230901 87 304 1.0 6.0 0.00 0.00 0.00 70 1013.7
20260901230339 87 287 5.0 12.0 0.00 0.00 0.00 69 1013.7
20260901225838 88 279 4.0 15.0 0.00 0.00 0.00 68 1013.7
20260901225337 88 308 5.0 15.0 0.00 0.00 0.00 67 1013.6
20260901224836 89 266 1.0 9.0 0.00 0.00 0.00 66 1013.5
20260901224335 89 273 4.0 12.0 0.00 0.00 0.00 65 1013.4
20260901223856 91 293 1.0 6.0 0.00 0.00 0.00 64 1013.3
20260901223333 91 316 1.0 5.0 0.00 0.00 0.00 64 1013.3
20260901222833 90 303 1.0 7.0 0.00 0.00 0.00 66 1013.4
20260901222331 89 271 0.0 3.0 0.00 0.00 0.00 68 1013.4
20260901221830 89 342 0.0 0.0 0.00 0.00 0.00 68 1013.4
20260901221350 89 341 1.0 7.0 0.00 0.00 0.00 66 1013.4
20260901220828 89 349 4.0 6.0 0.00 0.00 0.00 68 1013.4
20260901220327 88 330 1.0 6.0 0.00 0.00 0.00 68 1013.5
20260901215826 88 322 1.0 6.0 0.00 0.00 0.00 67 1013.4
20260901215325 89 310 1.0 6.0 0.00 0.00 0.00 66 1013.3
20260901214824 89 312 4.0 14.0 0.00 0.00 0.00 65 1013.2
20260901214323 89 313 4.0 14.0 0.00 0.01 0.00 65 1013.2
20260901213822 89 316 6.0 17.0 0.00 0.01 0.00 65 1013.2
20260901213321 89 331 5.0 15.0 0.00 0.01 0.00 65 1013.2
20260901212821 89 311 4.0 15.0 0.00 0.01 0.00 66 1013.2
20260901212340 89 299 4.0 11.0 0.00 0.01 0.00 65 1013.2
20260901211818 89 271 7.0 24.0 0.00 0.01 0.00 65 1013.2
20260901211318 90 308 6.0 13.0 0.00 0.01 0.00 65 1013.3
20260901210816 90 291 8.0 23.0 0.00 0.01 0.00 65 1013.3
20260901210315 90 265 3.0 9.0 0.00 0.01 0.00 66 1013.3
20260901205814 90 290 5.0 18.0 0.00 0.01 0.00 66 1013.4
20260901205313 90 304 5.0 22.0 0.00 0.01 0.00 67 1013.4
20260901204812 89 277 1.0 8.0 0.00 0.01 0.00 68 1013.4
20260901204311 89 316 5.0 13.0 0.00 0.01 0.00 68 1013.4
20260901203810 89 307 3.0 12.0 0.00 0.01 0.00 68 1013.4
20260901203310 89 309 4.0 10.0 0.00 0.01 0.00 67 1013.5
20260901202808 89 333 3.0 12.0 0.00 0.01 0.00 66 1013.4
20260901202306 90 325 6.0 13.0 0.00 0.01 0.00 66 1013.4
20260901201805 90 348 5.0 14.0 0.00 0.01 0.00 66 1013.4
20260901201305 90 343 5.0 12.0 0.00 0.01 0.00 66 1013.4
20260901200804 90 4 5.0 16.0 0.00 0.01 0.00 67 1013.4
20260901200303 89 0 5.0 17.0 0.00 0.01 0.00 66 1013.5
20260901195802 90 336 6.0 13.0 0.00 0.01 0.00 66 1013.4
20260901195301 90 325 3.0 17.0 0.00 0.01 0.00 65 1013.5
20260901194759 91 313 11.0 22.0 0.00 0.01 0.00 64 1013.5